Elmendorf AFB, AK

1:45 AM AKDT on June 25, 2017 (GMT -0800)
Elmendorf Air Force Base

Weather History for PAED - December, 2012

Change the Weather History Date:

Tuesday, December 11, 2012

  Actual Average Record
Temperature  
Mean Temperature 20 °F -  
Max Temperature 26 °F 20 °F 47 °F (1989)
Min Temperature 15 °F 6 °F -23 °F (1964)
Degree Days  
Heating Degree Days 44    
Moisture  
Dew Point 22 °F    
Average Humidity 93    
Maximum Humidity 100    
Minimum Humidity 86    
Precipitation  
Precipitation 0.02 in - - ()
Snow  
Snow 0.00 in - - ()
Snow Depth 6.00 in    
Sea Level Pressure  
Sea Level Pressure 29.81 in    
Wind  
Wind Speed 3 mph (SSW)    
Max Wind Speed 9 mph    
Max Gust Speed -    
Visibility 7 miles    
Events Snow    
Averages and records for this station are not official NWS values.
T = Trace of Precipitation, MM = Missing Value Source: NWS Daily Summary

Daily Weather History Graph

Daily Weather History Graph

Search for Another Location

Airport or City:

Trip Planner

Search our weather history database for the weather conditions in past years. The results will help you decide how hot, cold, wet, or windy it might be!

Date:

Astronomy

Dec. 11, 2012 Rise Set
Actual Time 10:04 AM AKST 3:40 PM AKST
Civil Twilight 9:03 AM AKST 4:41 PM AKST
Nautical Twilight 8:04 AM AKST 5:41 PM AKST
Astronomical Twilight 7:10 AM AKST 6:34 PM AKST
Moon 7:53 AM AKST (12/11) 2:43 PM AKST (12/11)
Length of Visible Light 7h 38m
Length of Day
5h 35m
Waning Crescent, 3% of the Moon is Illuminated
Dec 11
Waning Crescent
Dec 12
New
Dec 19
First Quarter
Dec 28
Full
Jan 4
Last Quarter

Hourly Weather History & Observations

Time (AKST) Temp. Windchill Dew Point Humidity Pressure Visibility Wind Dir Wind Speed Gust Speed Precip Events Conditions
12:19 AM 26.6 °F - 24.8 °F 93% 29.79 in 2.5 mi Calm Calm - N/A Snow Light Snow
12:27 AM 26.6 °F 22.6 °F 24.8 °F 93% 29.79 in 3.0 mi SW 3.5 mph - N/A Snow Light Snow
12:35 AM 26.6 °F 22.6 °F 24.8 °F 93% 29.79 in 7.0 mi SSW 3.5 mph - N/A   Overcast
12:40 AM 26.6 °F 21.2 °F 24.8 °F 93% 29.78 in 6.0 mi SSW 4.6 mph - N/A Snow Light Snow
12:49 AM 26.6 °F - 24.8 °F 93% 29.79 in 4.0 mi Calm Calm - N/A Snow Light Snow
12:55 AM 26.2 °F - 25.5 °F 97% 29.80 in 6.0 mi Calm Calm - 0.00 in Snow Light Snow
12:59 AM 26.6 °F - 24.8 °F 93% 29.80 in 8.0 mi Calm Calm - N/A   Overcast
1:00 AM 24.8 °F - 24.8 °F 100% 29.80 in 8.0 mi Calm Calm - N/A Snow Light Snow
1:04 AM 24.8 °F - 24.8 °F 100% 29.80 in 8.0 mi Calm Calm - N/A Snow Light Snow
1:10 AM 24.8 °F - 24.8 °F 100% 29.81 in 7.0 mi Calm Calm - N/A Snow Light Snow
1:11 AM 24.8 °F - 24.8 °F 100% 29.81 in 7.0 mi Calm Calm - N/A Snow Light Snow
1:12 AM 26.6 °F - 24.8 °F 93% 29.81 in 7.0 mi Calm Calm - N/A Snow Light Snow
1:29 AM 24.8 °F - 24.8 °F 100% 29.81 in 10.0 mi Calm Calm - N/A   Overcast
1:31 AM 24.8 °F - 24.8 °F 100% 29.81 in 10.0 mi Calm Calm - N/A   Overcast
1:43 AM 26.6 °F 21.2 °F 24.8 °F 93% 29.81 in 10.0 mi West 4.6 mph - N/A   Overcast
1:53 AM 26.6 °F 21.2 °F 24.8 °F 93% 29.81 in 10.0 mi WNW 4.6 mph - N/A   Overcast
1:55 AM 26.2 °F 19.6 °F 25.5 °F 97% 29.82 in 10.0 mi WNW 5.8 mph - 0.00 in   Overcast
2:10 AM 26.6 °F 20.0 °F 24.8 °F 93% 29.83 in 10.0 mi NW 5.8 mph - N/A   Overcast
2:20 AM 26.6 °F 18.2 °F 24.8 °F 93% 29.83 in 9.0 mi WNW 8.1 mph - N/A Snow Light Snow
2:48 AM 26.6 °F 19.1 °F 24.8 °F 93% 29.86 in 6.0 mi WNW 6.9 mph - N/A Snow Light Snow
2:55 AM 25.7 °F 19.0 °F 24.8 °F 96% 29.85 in 7.0 mi West 5.8 mph - 0.00 in Snow Light Snow
3:02 AM 26.6 °F 19.1 °F 24.8 °F 93% 29.86 in 10.0 mi West 6.9 mph - N/A   Overcast
3:08 AM 24.8 °F 17.9 °F 24.8 °F 100% 29.86 in 10.0 mi West 5.8 mph - N/A   Overcast
3:13 AM 24.8 °F 17.9 °F 24.8 °F 100% 29.86 in 8.0 mi WSW 5.8 mph - N/A   Overcast
3:14 AM 24.8 °F 19.1 °F 24.8 °F 100% 29.86 in 7.0 mi West 4.6 mph - N/A Snow Light Snow
3:15 AM 24.8 °F 19.1 °F 24.8 °F 100% 29.86 in 6.0 mi West 4.6 mph - N/A Snow Light Snow
3:17 AM 24.8 °F 19.1 °F 24.8 °F 100% 29.87 in 5.0 mi West 4.6 mph - N/A Snow Light Snow
3:33 AM 26.6 °F 21.2 °F 24.8 °F 93% 29.88 in 10.0 mi West 4.6 mph - N/A   Overcast
3:38 AM 24.8 °F 20.5 °F 24.8 °F 100% 29.88 in 10.0 mi West 3.5 mph - N/A Snow Light Snow
3:47 AM 24.8 °F 19.1 °F 24.8 °F 100% 29.88 in 10.0 mi WSW 4.6 mph - N/A   Overcast
3:55 AM 25.7 °F 21.5 °F 24.3 °F 94% 29.88 in 10.0 mi WSW 3.5 mph - 0.00 in   Overcast
4:10 AM 26.6 °F 20.0 °F 24.8 °F 93% 29.88 in 10.0 mi SW 5.8 mph - N/A Snow Light Snow
4:20 AM 26.6 °F 19.1 °F 24.8 °F 93% 29.88 in 10.0 mi WSW 6.9 mph - N/A   Overcast
4:27 AM 26.6 °F 18.2 °F 23.0 °F 86% 29.88 in 10.0 mi WSW 8.1 mph - N/A   Overcast
4:39 AM 26.6 °F 20.0 °F 23.0 °F 86% 29.88 in 10.0 mi SW 5.8 mph - N/A Snow Light Snow
4:51 AM 26.6 °F 21.2 °F 23.0 °F 86% 29.88 in 10.0 mi WSW 4.6 mph - N/A   Overcast
4:55 AM 25.7 °F 20.1 °F 23.5 °F 92% 29.88 in 10.0 mi WSW 4.6 mph - 0.00 in   Overcast
5:36 AM 24.8 °F 16.1 °F 23.0 °F 93% 29.90 in 10.0 mi WSW 8.1 mph - N/A   Overcast
5:55 AM 25.0 °F 17.1 °F 23.0 °F 92% 29.90 in 10.0 mi SW 6.9 mph - N/A   Overcast
6:38 AM 24.8 °F - 23.0 °F 93% 29.91 in 10.0 mi Calm Calm - N/A   Overcast
6:55 AM 24.8 °F - 23.2 °F 94% 29.90 in 10.0 mi Calm Calm - N/A   Overcast
7:09 AM 24.8 °F - 23.0 °F 93% 29.90 in 10.0 mi Calm Calm - N/A   Overcast
7:28 AM 24.8 °F 20.5 °F 23.0 °F 93% 29.89 in 10.0 mi East 3.5 mph - N/A   Overcast
7:39 AM 24.8 °F 17.9 °F 21.2 °F 86% 29.89 in 10.0 mi East 5.8 mph - N/A   Overcast
7:49 AM 23.0 °F 14.7 °F 21.2 °F 93% 29.88 in 10.0 mi East 6.9 mph - N/A   Mostly Cloudy
7:52 AM 23.0 °F 14.7 °F 21.2 °F 93% 29.88 in 10.0 mi East 6.9 mph - N/A   Scattered Clouds
7:55 AM 22.3 °F 13.0 °F 20.3 °F 92% 29.88 in 10.0 mi East 8.1 mph - N/A   Scattered Clouds
8:52 AM 21.2 °F 14.9 °F 19.4 °F 93% 29.88 in 8.0 mi East 4.6 mph - N/A   Mostly Cloudy
8:54 AM 21.2 °F 14.9 °F 19.4 °F 93% 29.88 in 8.0 mi East 4.6 mph - N/A   Scattered Clouds
8:55 AM 21.0 °F 14.6 °F 19.2 °F 93% 29.88 in 8.0 mi East 4.6 mph - N/A   Scattered Clouds
8:57 AM 21.2 °F 13.6 °F 19.4 °F 93% 29.88 in 8.0 mi East 5.8 mph - N/A   Mostly Cloudy
9:02 AM 23.0 °F 15.8 °F 21.2 °F 93% 29.88 in 10.0 mi East 5.8 mph - N/A   Scattered Clouds
9:46 AM 17.6 °F - 15.8 °F 93% 29.91 in 2.5 mi Calm Calm - N/A   Partly Cloudy
9:55 AM 18.5 °F - 16.3 °F 91% 29.91 in 2.0 mi Calm Calm - N/A   Mostly Cloudy
10:03 AM 17.6 °F - 15.8 °F 93% 29.91 in 3.0 mi Calm Calm - N/A   Mostly Cloudy
10:55 AM 18.3 °F - 16.2 °F 91% 29.89 in 10.0 mi Calm Calm - N/A   Clear
11:55 AM 15.8 °F 8.6 °F 13.1 °F 89% 29.90 in 10.0 mi ESE 4.6 mph - N/A   Scattered Clouds
12:01 PM 15.8 °F 10.2 °F 14.0 °F 93% 29.91 in 10.0 mi East 3.5 mph - N/A   Mostly Cloudy
12:55 PM 19.4 °F - 17.1 °F 91% 29.90 in 10.0 mi Calm Calm - N/A   Overcast
1:26 PM 21.2 °F 14.9 °F 19.4 °F 93% 29.88 in 10.0 mi East 4.6 mph - N/A   Mostly Cloudy
1:55 PM 19.6 °F - 17.6 °F 92% 29.88 in 10.0 mi Calm Calm - N/A   Clear
2:55 PM 17.1 °F - 14.5 °F 90% 29.86 in 10.0 mi Calm Calm - N/A   Clear
3:55 PM 16.9 °F - 14.5 °F 91% 29.85 in 10.0 mi Calm Calm - N/A   Clear
4:55 PM 20.1 °F 13.6 °F 18.1 °F 92% 29.80 in 10.0 mi East 4.6 mph - N/A   Clear
5:55 PM 23.2 °F 13.3 °F 20.5 °F 89% 29.81 in 10.0 mi NE 9.2 mph - N/A   Clear
6:05 PM 23.0 °F 17.0 °F 19.4 °F 86% 29.81 in 10.0 mi SE 4.6 mph - N/A   Partly Cloudy
6:17 PM 21.2 °F - 19.4 °F 93% 29.81 in 10.0 mi Calm Calm - N/A   Mostly Cloudy
6:20 PM 21.2 °F - 19.4 °F 93% 29.81 in 10.0 mi Calm Calm - N/A   Mostly Cloudy
6:29 PM 21.2 °F - 19.4 °F 93% 29.81 in 10.0 mi Calm Calm - N/A   Overcast
6:55 PM 22.1 °F - 19.4 °F 89% 29.80 in 10.0 mi Calm Calm - N/A   Overcast
7:55 PM 21.7 °F - 19.6 °F 91% 29.76 in 10.0 mi Calm Calm - 0.00 in Snow Light Snow
8:04 PM 21.2 °F - 19.4 °F 93% 29.77 in 4.0 mi Calm Calm - N/A Snow Light Snow
8:22 PM 23.0 °F 18.4 °F 19.4 °F 86% 29.75 in 2.5 mi SSW 3.5 mph - N/A Snow Light Snow
8:25 PM 21.2 °F 16.4 °F 19.4 °F 93% 29.75 in 1.8 mi SSW 3.5 mph - N/A Snow Light Snow
8:27 PM 21.2 °F 16.4 °F 19.4 °F 93% 29.75 in 1.5 mi SSW 3.5 mph - N/A Snow Light Snow
8:31 PM 21.2 °F 16.4 °F 19.4 °F 93% 29.75 in 1.5 mi South 3.5 mph - N/A Snow Light Snow
8:35 PM 21.2 °F - 19.4 °F 93% 29.74 in 1.5 mi Calm Calm - N/A Snow Light Snow
8:39 PM 21.2 °F - 19.4 °F 93% 29.73 in 1.5 mi Calm Calm - N/A Snow Light Snow
8:40 PM 21.2 °F 16.4 °F 19.4 °F 93% 29.73 in 1.8 mi East 3.5 mph - N/A Snow Light Snow
8:43 PM 21.2 °F 16.4 °F 19.4 °F 93% 29.73 in 2.0 mi East 3.5 mph - N/A Snow Light Snow
8:51 PM 21.2 °F 14.9 °F 19.4 °F 93% 29.72 in 2.5 mi East 4.6 mph - N/A Snow Light Snow
8:55 PM 21.7 °F 15.5 °F 19.8 °F 92% 29.71 in 2.5 mi East 4.6 mph - 0.01 in Snow Light Snow
9:02 PM 21.2 °F 16.4 °F 19.4 °F 93% 29.71 in 3.0 mi East 3.5 mph - N/A Snow Light Snow
9:06 PM 21.2 °F - 19.4 °F 93% 29.70 in 3.0 mi Calm Calm - N/A Snow Light Snow
9:34 PM 23.0 °F - 21.2 °F 93% 29.70 in 5.0 mi Calm Calm - N/A Snow Light Snow
9:43 PM 23.0 °F - 21.2 °F 93% 29.71 in 10.0 mi Calm Calm - N/A Snow Light Snow
9:51 PM 23.0 °F - 21.2 °F 93% 29.70 in 10.0 mi Calm Calm - N/A   Overcast
9:55 PM 23.0 °F - 20.8 °F 91% 29.70 in 10.0 mi Calm Calm - 0.00 in   Overcast
10:05 PM 23.0 °F - 21.2 °F 93% 29.69 in 10.0 mi Calm Calm - N/A   Overcast
10:06 PM 23.0 °F - 21.2 °F 93% 29.70 in 10.0 mi Calm Calm - N/A Snow Light Snow
10:46 PM 23.0 °F - 21.2 °F 93% 29.65 in 3.0 mi Calm Calm - N/A Snow Light Snow
10:55 PM 23.2 °F - 21.4 °F 93% 29.65 in 4.0 mi Calm Calm - 0.00 in Snow Light Snow
11:03 PM 23.0 °F - 21.2 °F 93% 29.65 in 2.5 mi Calm Calm - N/A Snow Light Snow
11:15 PM 24.8 °F 19.1 °F 21.2 °F 86% 29.65 in 2.5 mi NE 4.6 mph - N/A Snow Light Snow
11:27 PM 24.8 °F 19.1 °F 23.0 °F 93% 29.64 in 2.5 mi NNE 4.6 mph - N/A Snow Light Snow
11:44 PM 24.8 °F 16.9 °F 23.0 °F 93% 29.63 in 3.0 mi NE 6.9 mph - N/A Snow Light Snow
11:49 PM 24.8 °F 16.9 °F 23.0 °F 93% 29.63 in 3.0 mi NE 6.9 mph - N/A Snow Light Snow
11:55 PM 24.4 °F 16.5 °F 22.1 °F 91% 29.62 in 3.0 mi NE 6.9 mph - 0.01 in Snow Light Snow